Pella, IA

3:55 PM CDT on May 23, 2018 (GMT -0500)
Pella Municipal

Weather History for KPEA - January, 2013

Change the Weather History Date:

Friday, January 25, 2013

  Actual Average (KOXV) Record (KOXV)
Temperature  
Mean Temperature 26 °F -  
Max Temperature 38 °F 31 °F 61 °F (1981)
Min Temperature 13 °F 15 °F -9 °F (1972)
Degree Days  
Heating Degree Days 39    
Moisture  
Dew Point 13 °F    
Average Humidity 58    
Maximum Humidity 78    
Minimum Humidity 47    
Precipitation  
Precipitation 0.00 in - - ()
Sea Level Pressure  
Sea Level Pressure 30.15 in    
Wind  
Wind Speed 10 mph (West)    
Max Wind Speed 22 mph    
Max Gust Speed 30 mph    
Visibility 10 miles    
Events      
Averages and records for this station are not official NWS values.
T = Trace of Precipitation, MM = Missing Value Source: NWS Daily Summary

Daily Weather History Graph

Daily Weather History Graph

Search for Another Location

Airport or City:

Astronomy

Jan. 25, 2013 Rise Set
Actual Time 7:29 AM CST 5:19 PM CST
Civil Twilight 6:59 AM CST 5:49 PM CST
Nautical Twilight 6:25 AM CST 6:22 PM CST
Astronomical Twilight 5:53 AM CST 6:55 PM CST
Moon 4:17 PM CST (1/25) 6:09 AM CST (1/25)
Length of Visible Light 10h 49m
Length of Day
9h 50m
Waxing Gibbous, 98% of the Moon is Illuminated
Jan 25
Waxing Gibbous
Jan 26
Full
Feb 3
Last Quarter
Feb 10
New
Feb 17
First Quarter

Hourly Weather History & Observations

Time (CST) Temp. Windchill Dew Point Humidity Pressure Visibility Wind Dir Wind Speed Gust Speed Precip Events Conditions
12:15 AM 22.6 °F 12.6 °F 6.4 °F 50% 30.21 in 10.0 mi South 9.2 mph - N/A   Overcast
12:35 AM 22.6 °F 13.4 °F 6.1 °F 49% 30.21 in 10.0 mi South 8.1 mph - N/A   Overcast
12:55 AM 22.6 °F 14.3 °F 6.6 °F 50% 30.20 in 10.0 mi South 6.9 mph - N/A   Overcast
1:15 AM 22.6 °F 14.3 °F 6.6 °F 50% 30.19 in 10.0 mi SSW 6.9 mph - N/A   Mostly Cloudy
1:35 AM 22.6 °F 16.5 °F 6.8 °F 51% 30.20 in 10.0 mi SSW 4.6 mph - N/A   Mostly Cloudy
1:55 AM 22.6 °F 14.3 °F 7.3 °F 52% 30.19 in 10.0 mi SW 6.9 mph - N/A   Mostly Cloudy
2:15 AM 22.6 °F 12.6 °F 7.7 °F 53% 30.17 in 10.0 mi SSW 9.2 mph - N/A   Mostly Cloudy
2:35 AM 22.5 °F 13.2 °F 8.4 °F 55% 30.16 in 10.0 mi SW 8.1 mph - N/A   Mostly Cloudy
2:55 AM 22.5 °F 13.2 °F 9.3 °F 57% 30.14 in 10.0 mi SW 8.1 mph - N/A   Mostly Cloudy
3:15 AM 22.3 °F 16.1 °F 10.6 °F 61% 30.15 in 10.0 mi SW 4.6 mph - N/A   Overcast
3:35 AM 22.5 °F 14.1 °F 11.3 °F 62% 30.16 in 10.0 mi SW 6.9 mph - N/A   Mostly Cloudy
3:55 AM 22.5 °F 15.1 °F 11.7 °F 63% 30.16 in 10.0 mi WSW 5.8 mph - N/A   Overcast
4:15 AM 22.5 °F 17.8 °F 12.0 °F 64% 30.15 in 10.0 mi WSW 3.5 mph - N/A   Overcast
4:35 AM 22.1 °F 13.7 °F 12.0 °F 65% 30.14 in 10.0 mi WSW 6.9 mph - N/A   Overcast
4:55 AM 22.1 °F 13.7 °F 12.0 °F 65% 30.13 in 10.0 mi WSW 6.9 mph - N/A   Overcast
5:15 AM 22.1 °F 12.8 °F 12.2 °F 66% 30.12 in 10.0 mi SW 8.1 mph - N/A   Overcast
5:35 AM 22.1 °F 13.7 °F 12.6 °F 67% 30.11 in 10.0 mi SW 6.9 mph - N/A   Overcast
6:15 AM 20.1 °F 11.3 °F 12.4 °F 72% 30.12 in 10.0 mi WSW 6.9 mph - N/A   Clear
6:35 AM 19.6 °F 13.0 °F 12.2 °F 73% 30.13 in 10.0 mi WSW 4.6 mph - N/A   Clear
6:55 AM 19.4 °F 12.8 °F 12.2 °F 74% 30.14 in 10.0 mi WSW 4.6 mph - N/A   Clear
7:35 AM 18.1 °F 11.3 °F 12.0 °F 77% 30.13 in 10.0 mi SW 4.6 mph - N/A   Clear
7:55 AM 18.5 °F - 12.6 °F 78% 30.13 in 10.0 mi Calm Calm - N/A   Clear
8:15 AM 19.4 °F 11.5 °F 13.1 °F 76% 30.12 in 10.0 mi SW 5.8 mph - N/A   Clear
8:35 AM 21.0 °F 10.6 °F 12.9 °F 71% 30.11 in 10.0 mi SW 9.2 mph - N/A   Clear
8:55 AM 21.9 °F 11.7 °F 12.2 °F 66% 30.11 in 10.0 mi WSW 9.2 mph - N/A   Clear
9:15 AM 23.7 °F 12.6 °F 12.0 °F 61% 30.10 in 10.0 mi WSW 11.5 mph - N/A   Clear
9:35 AM 24.3 °F 11.7 °F 11.8 °F 59% 30.11 in 10.0 mi West 15.0 mph - N/A   Clear
9:55 AM 25.5 °F 14.3 °F 12.2 °F 57% 30.11 in 10.0 mi West 12.7 mph 18.4 mph N/A   Clear
10:15 AM 27.7 °F 17.1 °F 12.2 °F 52% 30.12 in 10.0 mi West 12.7 mph 17.3 mph N/A   Clear
10:35 AM 29.1 °F 18.9 °F 12.4 °F 50% 30.11 in 10.0 mi West 12.7 mph - N/A   Clear
10:55 AM 30.0 °F 18.7 °F 12.7 °F 49% 30.11 in 10.0 mi West 16.1 mph 23.0 mph N/A   Clear
11:15 AM 31.3 °F 22.7 °F 13.6 °F 48% 30.11 in 10.0 mi West 10.4 mph - N/A   Clear
11:35 AM 32.2 °F 23.2 °F 14.0 °F 47% 30.10 in 10.0 mi West 11.5 mph - N/A   Clear
11:55 AM 32.9 °F 24.7 °F 15.3 °F 48% 30.09 in 10.0 mi WNW 10.4 mph 19.6 mph N/A   Clear
12:15 PM 34.0 °F 24.2 °F 15.4 °F 47% 30.10 in 10.0 mi West 15.0 mph - N/A   Clear
12:35 PM 34.7 °F 25.1 °F 16.3 °F 47% 30.10 in 10.0 mi West 15.0 mph - N/A   Clear
12:55 PM 36.0 °F 25.6 °F 17.2 °F 47% 30.09 in 10.0 mi NW 18.4 mph 24.2 mph N/A   Clear
1:15 PM 35.8 °F 25.4 °F 17.4 °F 47% 30.10 in 10.0 mi West 18.4 mph 26.5 mph N/A   Clear
1:35 PM 36.9 °F 26.5 °F 18.9 °F 48% 30.09 in 10.0 mi WNW 19.6 mph 23.0 mph N/A   Clear
1:55 PM 36.7 °F 26.9 °F 20.3 °F 52% 30.10 in 10.0 mi WNW 17.3 mph 24.2 mph N/A   Clear
2:15 PM 36.9 °F 27.5 °F 20.7 °F 52% 30.09 in 10.0 mi NW 16.1 mph 25.3 mph N/A   Clear
2:35 PM 37.2 °F 26.4 °F 20.8 °F 52% 30.09 in 10.0 mi WNW 21.9 mph 29.9 mph N/A   Clear
2:55 PM 37.4 °F 27.5 °F 21.2 °F 52% 30.09 in 10.0 mi WNW 18.4 mph 24.2 mph N/A   Clear
3:15 PM 37.8 °F 29.0 °F 21.6 °F 52% 30.10 in 10.0 mi WNW 15.0 mph 20.7 mph N/A   Clear
3:35 PM 38.3 °F 28.7 °F 21.9 °F 52% 30.10 in 10.0 mi WNW 18.4 mph 24.2 mph N/A   Clear
3:55 PM 38.3 °F 30.1 °F 21.9 °F 52% 30.10 in 10.0 mi WNW 13.8 mph 21.9 mph N/A   Clear
4:15 PM 37.6 °F 28.1 °F 21.7 °F 53% 30.11 in 10.0 mi WNW 17.3 mph 27.6 mph N/A   Clear
4:35 PM 36.9 °F 28.2 °F 21.9 °F 55% 30.11 in 10.0 mi WNW 13.8 mph 23.0 mph N/A   Clear
4:55 PM 36.3 °F 26.4 °F 21.7 °F 56% 30.11 in 10.0 mi WNW 17.3 mph 21.9 mph N/A   Clear
5:15 PM 34.9 °F 27.1 °F 21.7 °F 59% 30.11 in 10.0 mi NW 10.4 mph - N/A   Clear
5:35 PM 33.3 °F 23.7 °F 21.7 °F 63% 30.12 in 10.0 mi WNW 13.8 mph 18.4 mph N/A   Clear
5:55 PM 32.7 °F 23.4 °F 21.6 °F 64% 30.14 in 10.0 mi NW 12.7 mph - N/A   Clear
6:15 PM 32.0 °F 23.0 °F 21.7 °F 66% 30.14 in 10.0 mi WNW 11.5 mph - N/A   Clear
6:35 PM 31.5 °F 22.3 °F 21.7 °F 67% 30.15 in 10.0 mi NW 11.5 mph - N/A   Clear
6:55 PM 30.9 °F 21.7 °F 21.7 °F 69% 30.16 in 10.0 mi NW 11.5 mph - N/A   Clear
7:15 PM 29.8 °F 21.5 °F 21.4 °F 71% 30.16 in 10.0 mi NW 9.2 mph - N/A   Clear
7:35 PM 28.9 °F 18.6 °F 20.7 °F 71% 30.18 in 10.0 mi North 12.7 mph 21.9 mph N/A   Clear
7:55 PM 24.8 °F 12.9 °F 12.9 °F 61% 30.19 in 10.0 mi North 13.8 mph 18.4 mph N/A   Clear
8:15 PM 23.0 °F 12.4 °F 11.3 °F 61% 30.20 in 10.0 mi North 10.4 mph 17.3 mph N/A   Clear
8:35 PM 21.9 °F 11.7 °F 9.0 °F 58% 30.22 in 10.0 mi North 9.2 mph 17.3 mph N/A   Clear
8:55 PM 20.8 °F 9.7 °F 7.7 °F 57% 30.23 in 10.0 mi North 10.4 mph 18.4 mph N/A   Clear
9:15 PM 19.9 °F 6.2 °F 5.9 °F 55% 30.24 in 10.0 mi North 15.0 mph 18.4 mph N/A   Clear
9:35 PM 19.0 °F 5.6 °F 4.5 °F 53% 30.26 in 10.0 mi NNW 13.8 mph 19.6 mph N/A   Clear
9:55 PM 18.3 °F 5.2 °F 4.1 °F 54% 30.27 in 10.0 mi NNW 12.7 mph - N/A   Clear
10:15 PM 17.4 °F 4.7 °F 3.6 °F 55% 30.28 in 10.0 mi NNW 11.5 mph - N/A   Clear
10:35 PM 16.3 °F 5.7 °F 3.6 °F 57% 30.29 in 10.0 mi NNW 8.1 mph - N/A   Clear
10:55 PM 15.3 °F 5.4 °F 4.1 °F 61% 30.29 in 10.0 mi NNW 6.9 mph - N/A   Clear
11:15 PM 14.9 °F 4.0 °F 3.2 °F 60% 30.30 in 10.0 mi North 8.1 mph - N/A   Clear
11:35 PM 14.5 °F 2.7 °F 3.0 °F 60% 30.31 in 10.0 mi NNW 9.2 mph - N/A   Clear
11:55 PM 13.8 °F 4.9 °F 3.2 °F 63% 30.31 in 10.0 mi North 5.8 mph - N/A   Clear